This is the latest recevied weather packets stored in our database for station/object W4NDF-13. If no packets are shown the sender has not sent any weather packets the latest 10 day(s).
| Time | Temp. | Humidity | Pressure | Rain* | Wind** | Luminosity | Snow |
|---|---|---|---|---|---|---|---|
| 1777778663 | 20.56° C | 47% | 1019.4 hPa | 0 mm | - | 0 W/m² | - |
| 1777778360 | 20° C | 48% | 1019.3 hPa | 0 mm | - | 0 W/m² | - |
| 1777778058 | 20.56° C | 47% | 1019.1 hPa | 0 mm | - | 0 W/m² | - |
| 1777777754 | 20.56° C | 46% | 1019.1 hPa | 0 mm | - | 0 W/m² | - |
| 1777777451 | 20° C | 49% | 1019 hPa | 0 mm | - | 0 W/m² | - |
| 1777777148 | 20.56° C | 47% | 1018.9 hPa | 0 mm | - | 0 W/m² | - |
| 1777776845 | 20.56° C | 47% | 1019 hPa | 0 mm | - | 0 W/m² | - |
| 1777776542 | 20.56° C | 46% | 1019 hPa | 0 mm | - | 0 W/m² | - |
| 1777776238 | 20.56° C | 46% | 1018.8 hPa | 0 mm | - | 0 W/m² | - |
| 1777775935 | 20.56° C | 45% | 1018.7 hPa | 0 mm | - | 0 W/m² | - |
| 1777775633 | 20.56° C | 45% | 1018.9 hPa | 0 mm | - | 0 W/m² | - |
| 1777775330 | 20.56° C | 45% | 1018.4 hPa | 0 mm | - | 0 W/m² | - |
| 1777775029 | 20.56° C | 44% | 1018.6 hPa | 0 mm | - | 0 W/m² | - |
| 1777774726 | 20.56° C | 45% | 1018.6 hPa | 0 mm | - | 0 W/m² | - |
| 1777774422 | 20.56° C | 44% | 1018.6 hPa | 0 mm | - | 0 W/m² | - |
| 1777774120 | 20.56° C | 43% | 1018.8 hPa | 0 mm | - | 0 W/m² | - |
| 1777773818 | 20.56° C | 44% | 1019 hPa | 0 mm | - | 0 W/m² | - |
| 1777773514 | 20.56° C | 44% | 1018.7 hPa | 0 mm | - | 0 W/m² | - |
| 1777773211 | 20.56° C | 43% | 1018.7 hPa | 0 mm | - | 0 W/m² | - |
| 1777772907 | 20.56° C | 44% | 1018.5 hPa | 0 mm | - | 0 W/m² | - |
| 1777772605 | 20.56° C | 44% | 1018.4 hPa | 0 mm | - | 0 W/m² | - |
| 1777772302 | 21.11° C | 43% | 1018.6 hPa | 0 mm | - | 0 W/m² | - |
| 1777771999 | 20.56° C | 43% | 1018.8 hPa | 0 mm | - | 0 W/m² | - |
| 1777771696 | 20.56° C | 45% | 1018.6 hPa | 0 mm | - | 0 W/m² | - |
| 1777771394 | 20.56° C | 45% | 1018.7 hPa | 0 mm | - | 0 W/m² | - |
* Rain latest hour (hover to see other rain measurements)
** Current wind speed in m/s (hover to see current wind gust speed)